DLH872 EDDF-ENBR

Flight info

Callsign DLH872
Flight time 1h 41m
Altitude 24000
Route MARUN9S MARUN Y152 ARPEG/N0441F360 Z850 ABILU DCT ATPAQ DCT DOROR DCT MITSI DCT BADAB
Aircraft A321/M-SDE2E3FGIJ1LORWXYZ/HB1

Departure

Time 2026-05-04 06:40
Airport Frankfurt Main Airport (EDDF)

Arrival

Time 2026-05-04 08:21
Airport Bergen Airport, Flesland (ENBR)
Time Latitude Longitude Altitude Speed Heading
2026-05-04 05:55 50.04418 8.56275 358 ft 0 kts 162°
2026-05-04 06:18 50.04422 8.56273 356 ft 3 kts 162°
2026-05-04 06:18 50.04447 8.56259 363 ft 4 kts 163°
2026-05-04 06:20 50.04515 8.56379 360 ft 0 kts 250°
2026-05-04 06:22 50.04515 8.56378 360 ft 1 kts 250°
2026-05-04 06:25 50.04070 8.55233 358 ft 19 kts 249°
2026-05-04 06:25 50.04022 8.55031 360 ft 20 kts 250°
2026-05-04 06:26 50.03970 8.54814 355 ft 23 kts 249°
2026-05-04 06:26 50.03913 8.54574 352 ft 25 kts 250°
2026-05-04 06:26 50.03863 8.54377 354 ft 17 kts 244°
2026-05-04 06:26 50.03805 8.54202 347 ft 19 kts 242°
2026-05-04 06:27 50.03581 8.53324 336 ft 24 kts 250°
2026-05-04 06:28 50.03521 8.53074 337 ft 25 kts 249°
2026-05-04 06:28 50.03467 8.52855 333 ft 17 kts 246°
2026-05-04 06:28 50.03436 8.52746 333 ft 5 kts 249°
2026-05-04 06:28 50.03434 8.52738 333 ft 0 kts 250°
2026-05-04 06:38 50.03433 8.52734 331 ft 1 kts 250°
2026-05-04 06:38 50.03427 8.52709 332 ft 4 kts 250°
2026-05-04 06:40 49.99725 8.52630 1306 ft 178 kts 181°
2026-05-04 06:40 49.98468 8.52557 1958 ft 187 kts 192°
2026-05-04 06:40 49.97259 8.51638 2167 ft 206 kts 221°
2026-05-04 06:40 49.96188 8.50028 2554 ft 218 kts 225°
2026-05-04 06:41 49.95097 8.48373 3203 ft 220 kts 224°
2026-05-04 06:41 49.94001 8.46716 3850 ft 221 kts 224°
2026-05-04 06:41 49.92886 8.45041 4434 ft 228 kts 225°
2026-05-04 06:41 49.91687 8.43242 4743 ft 250 kts 225°
2026-05-04 06:42 49.90414 8.41334 5357 ft 258 kts 225°
2026-05-04 06:42 49.89130 8.39412 6122 ft 261 kts 225°
2026-05-04 06:42 49.87938 8.37286 6842 ft 263 kts 240°
2026-05-04 06:44 49.93973 8.19638 10706 ft 338 kts 335°
2026-05-04 06:44 49.96299 8.18821 11214 ft 350 kts 355°
2026-05-04 06:44 49.98730 8.19318 11778 ft 359 kts 17°
2026-05-04 06:45 50.01044 8.20832 12383 ft 363 kts 22°
2026-05-04 06:45 50.03359 8.22443 13005 ft 366 kts 23°
2026-05-04 06:45 50.05693 8.24076 13602 ft 369 kts 23°
2026-05-04 06:45 50.08047 8.25725 14185 ft 373 kts 23°
2026-05-04 06:46 50.10425 8.27390 14720 ft 376 kts 23°
2026-05-04 06:46 50.12820 8.29070 15253 ft 379 kts 23°
2026-05-04 06:46 50.15238 8.30768 15791 ft 383 kts 23°
2026-05-04 06:46 50.17677 8.32475 16312 ft 386 kts 23°
2026-05-04 06:48 50.35535 8.43992 19630 ft 408 kts 17°
2026-05-04 06:48 50.38219 8.45453 20092 ft 410 kts 18°
2026-05-04 06:49 50.40925 8.46932 20530 ft 413 kts 18°
2026-05-04 06:50 50.60527 8.56795 23344 ft 433 kts 14°
2026-05-04 06:51 50.63428 8.58156 23711 ft 436 kts 14°
2026-05-04 06:51 50.66340 8.59545 24034 ft 438 kts 15°
2026-05-04 06:51 50.69265 8.60955 24377 ft 441 kts 15°
2026-05-04 06:51 50.72204 8.62377 24720 ft 443 kts 15°
2026-05-04 06:52 50.75183 8.63602 25051 ft 442 kts
2026-05-04 06:52 50.78237 8.63746 25371 ft 438 kts 351°
2026-05-04 06:52 50.81213 8.62827 25706 ft 434 kts 338°
2026-05-04 06:52 50.83989 8.61027 26031 ft 430 kts 327°
2026-05-04 06:53 50.86474 8.58453 26355 ft 425 kts 316°
2026-05-04 06:53 50.88573 8.55200 26684 ft 421 kts 306°
2026-05-04 06:53 50.90472 8.51667 27018 ft 422 kts 306°
2026-05-04 06:53 50.92372 8.48109 27347 ft 424 kts 305°
2026-05-04 06:54 50.94277 8.44527 27671 ft 426 kts 305°
2026-05-04 06:54 50.96187 8.40931 28010 ft 427 kts 305°
2026-05-04 06:54 50.98106 8.37315 28344 ft 429 kts 305°
2026-05-04 06:54 51.00052 8.33708 28659 ft 433 kts 308°
2026-05-04 06:55 51.02289 8.30455 28965 ft 440 kts 317°
2026-05-04 06:55 51.04864 8.27768 29302 ft 447 kts 326°
2026-05-04 06:55 51.07589 8.25360 29629 ft 448 kts 326°
2026-05-04 06:55 51.10316 8.22938 29946 ft 450 kts 326°
2026-05-04 06:56 51.13050 8.20503 30225 ft 451 kts 326°
2026-05-04 06:57 51.32390 8.03179 32012 ft 456 kts 325°
2026-05-04 06:58 51.35154 8.00688 32298 ft 455 kts 325°
2026-05-04 06:58 51.37919 7.98224 32584 ft 456 kts 328°
2026-05-04 06:58 51.40820 7.96256 32848 ft 462 kts 336°
2026-05-04 06:58 51.43993 7.94962 33121 ft 468 kts 346°
2026-05-04 06:59 51.47240 7.94322 33360 ft 471 kts 349°
2026-05-04 06:59 51.50500 7.93763 33622 ft 471 kts 349°
2026-05-04 06:59 51.53717 7.93213 33890 ft 471 kts 349°
2026-05-04 06:59 51.56976 7.92654 34151 ft 471 kts 349°
2026-05-04 07:01 51.79700 7.88681 35696 ft 468 kts 348°
2026-05-04 07:01 51.82940 7.88114 35898 ft 468 kts 348°
2026-05-04 07:02 51.89407 7.86981 35977 ft 466 kts 348°
2026-05-04 07:02 51.95839 7.85840 35981 ft 465 kts 348°
2026-05-04 07:03 52.02272 7.84685 35985 ft 466 kts 348°
2026-05-04 07:03 52.08710 7.83549 36001 ft 465 kts 349°
2026-05-04 07:04 52.15148 7.82416 36005 ft 465 kts 349°
2026-05-04 07:04 52.21592 7.81268 36010 ft 466 kts 349°
2026-05-04 07:05 52.28038 7.80109 36025 ft 466 kts 349°
2026-05-04 07:05 52.34477 7.78949 36014 ft 465 kts 349°
2026-05-04 07:06 52.44122 7.77197 36006 ft 464 kts 349°
2026-05-04 07:07 52.50500 7.76048 35998 ft 464 kts 349°
2026-05-04 07:09 52.75804 7.70374 36011 ft 457 kts 347°
2026-05-04 07:09 52.82104 7.68908 36012 ft 457 kts 347°
2026-05-04 07:10 52.88393 7.67451 36008 ft 456 kts 347°
2026-05-04 07:12 53.13445 7.61577 35998 ft 453 kts 346°
2026-05-04 07:12 53.19692 7.60104 36000 ft 453 kts 346°
2026-05-04 07:13 53.25941 7.58628 35992 ft 454 kts 346°
2026-05-04 07:13 53.32191 7.57139 36007 ft 454 kts 346°
2026-05-04 07:14 53.47772 7.53407 35996 ft 454 kts 346°
2026-05-04 07:15 53.54024 7.51906 36001 ft 454 kts 346°
2026-05-04 07:15 53.60284 7.50399 35996 ft 455 kts 346°
2026-05-04 07:16 53.66548 7.48879 36002 ft 455 kts 346°
2026-05-04 07:16 53.72816 7.47357 36008 ft 455 kts 346°
2026-05-04 07:17 53.79094 7.45836 36023 ft 456 kts 347°
2026-05-04 07:17 53.85372 7.44303 36015 ft 456 kts 347°
2026-05-04 07:18 53.91654 7.42761 36012 ft 457 kts 347°
2026-05-04 07:18 53.97943 7.41217 36012 ft 457 kts 347°
2026-05-04 07:19 54.04238 7.39675 36034 ft 457 kts 347°
2026-05-04 07:19 54.10487 7.38137 36022 ft 456 kts 347°
2026-05-04 07:20 54.16774 7.36580 36015 ft 457 kts 347°
2026-05-04 07:20 54.23063 7.35013 36016 ft 457 kts 347°
2026-05-04 07:22 54.48243 7.28703 36017 ft 457 kts 347°
2026-05-04 07:23 54.54538 7.27121 36035 ft 457 kts 347°
2026-05-04 07:23 54.60830 7.25531 36025 ft 457 kts 347°
2026-05-04 07:24 54.67119 7.23928 36017 ft 457 kts 347°
2026-05-04 07:24 54.72343 7.22600 36015 ft 457 kts 347°
2026-05-04 07:26 54.97459 7.16157 36014 ft 455 kts 347°
2026-05-04 07:27 55.03706 7.14425 36016 ft 454 kts 345°
2026-05-04 07:27 55.09895 7.12327 36027 ft 453 kts 344°
2026-05-04 07:28 55.16070 7.10153 36023 ft 452 kts 345°
2026-05-04 07:28 55.22240 7.08049 36015 ft 452 kts 345°
2026-05-04 07:29 55.28410 7.05987 36014 ft 451 kts 345°
2026-05-04 07:29 55.34574 7.03919 36034 ft 451 kts 345°
2026-05-04 07:30 55.40730 7.01843 36009 ft 450 kts 345°
2026-05-04 07:30 55.46880 6.99757 36012 ft 450 kts 345°
2026-05-04 07:31 55.53024 6.97663 36007 ft 450 kts 345°
2026-05-04 07:33 55.77540 6.89254 36009 ft 449 kts 345°
2026-05-04 07:33 55.83673 6.87139 35997 ft 449 kts 345°
2026-05-04 07:34 55.89809 6.85013 35999 ft 449 kts 345°
2026-05-04 07:34 55.95939 6.82873 35999 ft 449 kts 345°
2026-05-04 07:35 56.02072 6.80739 36007 ft 449 kts 345°
2026-05-04 07:35 56.08197 6.78602 36006 ft 448 kts 345°
2026-05-04 07:36 56.14316 6.76447 36007 ft 446 kts 345°
2026-05-04 07:38 56.38601 6.67845 35996 ft 445 kts 345°
2026-05-04 07:38 56.44676 6.65669 36009 ft 445 kts 345°
2026-05-04 07:39 56.50744 6.63483 35997 ft 445 kts 345°
2026-05-04 07:39 56.56814 6.61297 35988 ft 445 kts 345°
2026-05-04 07:40 56.62880 6.59117 35988 ft 445 kts 345°
2026-05-04 07:40 56.68946 6.56935 35981 ft 443 kts 345°
2026-05-04 07:41 56.74975 6.54751 35976 ft 441 kts 345°
2026-05-04 07:41 56.80960 6.52565 35979 ft 442 kts 345°
2026-05-04 07:42 56.86986 6.50343 35978 ft 442 kts 344°
2026-05-04 07:42 56.93019 6.48121 35987 ft 442 kts 345°
2026-05-04 07:43 56.99051 6.45927 35992 ft 441 kts 345°
2026-05-04 07:43 57.03582 6.44878 35987 ft 443 kts 350°
2026-05-04 07:44 57.08759 6.43854 35981 ft 441 kts 350°
2026-05-04 07:44 57.14861 6.42633 35976 ft 441 kts 350°
2026-05-04 07:45 57.20939 6.41421 35981 ft 440 kts 350°
2026-05-04 07:45 57.27019 6.40199 35981 ft 439 kts 349°
2026-05-04 07:46 57.33098 6.38982 35973 ft 439 kts 349°
2026-05-04 07:46 57.39167 6.37766 35970 ft 438 kts 349°
2026-05-04 07:47 57.45228 6.36545 35963 ft 438 kts 349°
2026-05-04 07:49 57.69328 6.31639 35947 ft 436 kts 349°
2026-05-04 07:49 57.75362 6.30399 35952 ft 436 kts 349°
2026-05-04 07:50 57.81388 6.29166 35948 ft 435 kts 349°
2026-05-04 07:50 57.87406 6.27921 35946 ft 435 kts 349°
2026-05-04 07:51 57.93419 6.26668 35945 ft 435 kts 349°
2026-05-04 07:51 57.99434 6.25412 35938 ft 435 kts 349°
2026-05-04 07:52 58.05453 6.24159 35970 ft 435 kts 348°
2026-05-04 07:52 58.11464 6.22903 35939 ft 434 kts 348°
2026-05-04 07:54 58.35388 6.17856 35394 ft 425 kts 348°
2026-05-04 07:55 58.38314 6.17232 35150 ft 420 kts 348°
2026-05-04 07:55 58.41205 6.16622 34738 ft 416 kts 348°
2026-05-04 07:55 58.44074 6.16013 34285 ft 413 kts 348°
2026-05-04 07:55 58.46916 6.15403 33814 ft 409 kts 348°
2026-05-04 07:56 58.49734 6.14798 33333 ft 405 kts 348°
2026-05-04 07:56 58.52514 6.14205 32900 ft 400 kts 348°
2026-05-04 07:56 58.55260 6.13622 32458 ft 394 kts 348°
2026-05-04 07:56 58.57968 6.13043 32022 ft 389 kts 348°
2026-05-04 07:57 58.60640 6.12467 31594 ft 384 kts 348°
2026-05-04 07:57 58.63279 6.11896 31168 ft 378 kts 347°
2026-05-04 07:57 58.65873 6.11336 30754 ft 373 kts 347°
2026-05-04 07:57 58.68431 6.10785 30346 ft 367 kts 347°
2026-05-04 07:58 58.70922 6.10247 29945 ft 362 kts 348°
2026-05-04 07:58 58.73409 6.09708 29523 ft 357 kts 347°
2026-05-04 07:58 58.75855 6.09176 29139 ft 351 kts 347°
2026-05-04 07:58 58.78259 6.08650 28773 ft 345 kts 347°
2026-05-04 07:59 58.80620 6.08133 28416 ft 339 kts 347°
2026-05-04 07:59 58.82947 6.07628 28066 ft 334 kts 347°
2026-05-04 07:59 58.85237 6.07131 27723 ft 330 kts 346°
2026-05-04 07:59 58.87516 6.06630 27385 ft 330 kts 346°
2026-05-04 08:00 58.89794 6.06130 27084 ft 329 kts 345°
2026-05-04 08:00 58.92065 6.05633 26712 ft 328 kts 345°
2026-05-04 08:00 58.94328 6.05134 26375 ft 327 kts 345°
2026-05-04 08:02 59.10053 6.01401 23901 ft 321 kts 341°
2026-05-04 08:02 59.12207 6.00579 23529 ft 319 kts 340°
2026-05-04 08:02 59.14377 5.99699 23107 ft 318 kts 339°
2026-05-04 08:03 59.16537 5.98819 22722 ft 316 kts 340°
2026-05-04 08:03 59.18687 5.97955 22384 ft 315 kts 339°
2026-05-04 08:03 59.20785 5.96763 21565 ft 317 kts 331°
2026-05-04 08:03 59.22881 5.95225 20676 ft 327 kts 330°
2026-05-04 08:04 59.25040 5.93603 19777 ft 338 kts 330°
2026-05-04 08:04 59.27261 5.91930 19021 ft 344 kts 331°
2026-05-04 08:04 59.29478 5.90276 18599 ft 338 kts 331°
2026-05-04 08:04 59.31666 5.88652 18112 ft 335 kts 331°
2026-05-04 08:05 59.33830 5.87044 17554 ft 331 kts 331°
2026-05-04 08:05 59.35974 5.85448 17029 ft 328 kts 331°
2026-05-04 08:05 59.38095 5.83865 16493 ft 324 kts 331°
2026-05-04 08:05 59.40192 5.82294 15981 ft 321 kts 331°
2026-05-04 08:06 59.42270 5.80732 15483 ft 318 kts 331°
2026-05-04 08:06 59.44321 5.79187 14994 ft 314 kts 331°
2026-05-04 08:06 59.46342 5.77664 14598 ft 308 kts 331°
2026-05-04 08:06 59.48320 5.76176 14258 ft 302 kts 331°
2026-05-04 08:08 59.61138 5.66463 11819 ft 261 kts 331°
2026-05-04 08:08 59.62817 5.65183 11510 ft 256 kts 332°
2026-05-04 08:10 59.75439 5.55512 9122 ft 236 kts 333°
2026-05-04 08:11 59.76973 5.54329 8847 ft 236 kts 333°
2026-05-04 08:11 59.80022 5.51973 8261 ft 237 kts 334°
2026-05-04 08:11 59.81557 5.50786 7972 ft 237 kts 334°
2026-05-04 08:12 59.83091 5.49601 7685 ft 236 kts 334°
2026-05-04 08:12 59.84619 5.48427 7476 ft 236 kts 334°
2026-05-04 08:12 59.86150 5.47249 7246 ft 236 kts 334°
2026-05-04 08:12 59.87676 5.46071 6948 ft 235 kts 335°
2026-05-04 08:13 59.89199 5.44892 6663 ft 235 kts 335°
2026-05-04 08:13 59.90719 5.43714 6374 ft 234 kts 335°
2026-05-04 08:13 59.92233 5.42536 6073 ft 233 kts 335°
2026-05-04 08:13 59.93744 5.41359 5779 ft 233 kts 335°
2026-05-04 08:14 59.95253 5.40185 5486 ft 233 kts 335°
2026-05-04 08:14 59.96759 5.39010 5200 ft 232 kts 336°
2026-05-04 08:14 59.98265 5.37834 4907 ft 232 kts 336°
2026-05-04 08:16 60.08002 5.30232 3568 ft 198 kts 336°
2026-05-04 08:16 60.08865 5.29552 3446 ft 197 kts 336°
2026-05-04 08:16 60.10146 5.28570 3261 ft 197 kts 340°
2026-05-04 08:17 60.11477 5.27860 3072 ft 198 kts 346°
2026-05-04 08:17 60.12829 5.27342 2890 ft 197 kts 348°
2026-05-04 08:17 60.14182 5.26879 2708 ft 197 kts 349°
2026-05-04 08:17 60.15523 5.26431 2574 ft 195 kts 348°
2026-05-04 08:19 60.23525 5.23762 1143 ft 135 kts 349°
2026-05-04 08:19 60.24450 5.23452 951 ft 136 kts 348°
2026-05-04 08:20 60.25391 5.23137 765 ft 138 kts 349°
2026-05-04 08:20 60.26331 5.22822 581 ft 139 kts 349°
2026-05-04 08:20 60.27292 5.22500 397 ft 141 kts 349°
2026-05-04 08:20 60.28265 5.22178 215 ft 142 kts 349°
2026-05-04 08:21 60.29185 5.21865 162 ft 117 kts 351°
2026-05-04 08:21 60.29821 5.21651 156 ft 67 kts 351°
2026-05-04 08:21 60.30003 5.21606 162 ft 7 kts
2026-05-04 08:21 60.30038 5.21674 161 ft 9 kts 72°
2026-05-04 08:22 60.30047 5.21827 159 ft 13 kts 90°
2026-05-04 08:22 60.29974 5.21932 156 ft 16 kts 172°
2026-05-04 08:24 60.29150 5.22202 163 ft 12 kts 171°
2026-05-04 08:24 60.29066 5.22230 163 ft 12 kts 171°
2026-05-04 08:24 60.28987 5.22256 162 ft 10 kts 170°
2026-05-04 08:24 60.28940 5.22306 163 ft 6 kts 120°
2026-05-04 08:25 60.28929 5.22369 165 ft 3 kts 123°
2026-05-04 08:25 60.28917 5.22389 166 ft 2 kts 143°
2026-05-04 08:25 60.28893 5.22408 167 ft 5 kts 164°
2026-05-04 08:25 60.28857 5.22424 167 ft 6 kts 168°
2026-05-04 08:26 60.28835 5.22471 169 ft 2 kts 93°
2026-05-04 08:27 60.28858 5.22567 173 ft 0 kts 58°